Theta_e
327 337 339 338 339 339 340 343 346 347 349 352 355 354 354 355 357 359 359 360 359 359 361 362 362 362 362 362 363 363 363 364 364 363 363 362 360 359 360 363 363 364 362 362 363 363 365 365 364 363 365 366 366 367 368 368 370 369 370 371 369 368 364
327 334 336 338 340 341 343 345 350 350 350 354 355 356 354 355 357 358 359 361 361 361 361 362 363 362 362 363 363 364 363 363 364 364 364 363 362 361 362 363 365 366 366 364 365 367 367 366 365 364 364 366 365 367 367 368 368 368 367 369 367 368 366
326 329 340 339 340 341 343 342 345 348 350 351 355 355 355 357 358 358 359 360 362 363 362 362 363 363 363 364 363 363 363 363 364 365 362 360 361 358 361 363 365 366 367 367 367 367 367 366 365 366 364 364 363 367 367 368 369 368 369 369 367 365 365
330 328 330 339 341 342 343 343 343 346 349 351 356 355 356 359 360 360 361 360 360 362 363 362 362 361 363 363 363 363 363 363 363 362 361 360 360 360 360 361 364 365 367 365 365 365 364 365 365 365 368 364 364 366 367 365 366 368 368 368 366 366 366
331 330 330 339 341 342 342 343 346 351 347 353 357 359 358 360 358 359 361 360 361 362 363 363 361 362 364 364 363 363 363 363 363 362 362 361 362 361 359 358 361 361 363 366 366 364 365 366 365 364 365 366 366 367 368 367 366 368 368 367 364 364 365
332 330 330 337 336 337 339 341 342 348 352 353 355 357 356 356 356 356 360 362 362 363 365 364 363 364 363 364 364 364 364 364 364 363 363 363 363 361 360 360 360 361 359 365 366 365 363 366 365 365 363 364 364 364 366 367 365 367 368 367 364 363 362
330 329 331 337 337 337 336 338 342 348 354 355 353 358 357 355 355 356 358 362 363 364 364 363 363 362 364 365 365 365 364 363 364 363 363 363 363 363 362 362 361 362 362 365 365 365 363 362 365 366 366 362 362 362 364 366 364 365 367 366 364 364 364
331 331 333 334 335 335 338 346 346 344 348 355 351 355 356 356 356 355 357 361 363 363 364 363 364 364 365 366 364 362 363 362 363 364 362 361 362 362 362 363 362 363 365 364 365 366 364 363 362 366 367 365 364 364 366 367 366 365 365 365 364 364 364
335 334 332 331 333 334 335 339 339 342 345 345 347 352 357 356 355 356 358 360 361 362 363 364 364 364 366 366 364 363 364 364 363 363 362 358 359 359 359 362 364 364 364 363 363 366 365 364 362 364 367 366 366 366 366 366 366 364 364 365 364 363 361
332 332 332 332 337 335 342 343 346 345 345 346 348 356 357 356 357 356 357 358 360 361 363 364 364 364 364 364 363 362 363 363 363 362 360 360 361 359 358 361 362 364 364 363 363 364 365 366 365 364 365 366 367 368 366 366 366 365 364 365 365 364 363
335 335 336 334 338 342 344 345 345 346 346 350 357 356 358 359 357 356 357 358 359 360 363 364 364 363 363 362 361 360 362 361 362 363 363 361 360 360 360 360 360 362 362 361 362 364 365 365 367 367 366 365 366 368 367 365 366 365 363 364 366 365 364
338 336 335 336 337 341 340 343 345 346 347 355 358 356 359 360 357 357 357 357 359 360 361 362 363 362 363 363 361 361 361 361 360 360 361 360 358 360 359 359 359 363 364 363 362 363 364 364 365 367 367 366 366 367 368 367 366 366 364 363 364 365 365
342 343 339 339 342 345 347 348 348 347 352 358 356 355 357 358 357 357 360 359 359 359 359 362 362 363 361 363 362 362 360 361 360 360 360 361 359 360 360 360 360 360 362 364 363 362 361 364 364 366 368 367 367 366 367 368 366 366 366 365 364 364 365
341 334 339 342 344 343 346 347 357 360 356 357 355 356 356 357 358 359 361 359 359 358 358 359 361 362 362 364 363 363 360 361 363 362 362 362 362 362 360 360 360 360 363 365 364 362 360 362 364 365 367 368 367 367 367 367 367 366 367 366 366 365 365
329 331 336 338 350 353 345 343 351 362 362 360 356 355 355 355 357 360 362 360 360 358 358 360 360 361 360 363 364 364 364 364 364 364 363 363 363 362 361 361 362 362 363 365 365 363 362 361 365 365 365 367 369 368 367 366 366 366 366 366 366 366 364
325 326 328 334 343 345 361 359 368 364 364 362 357 358 353 356 359 359 359 359 358 361 359 361 361 361 359 361 364 365 366 365 365 365 363 363 363 363 362 362 363 363 362 363 365 365 364 362 361 364 365 364 367 368 367 366 366 354 341 347 364 365 363
324 327 330 336 350 344 355 358 362 367 367 365 363 361 357 357 359 358 356 356 357 360 360 360 363 361 360 360 364 366 367 367 366 366 364 364 364 365 364 363 363 363 363 362 364 365 365 365 362 359 363 364 365 366 367 366 364 342 335 337 343 360 363
324 333 332 335 344 348 353 353 359 359 361 358 358 362 359 361 359 354 354 355 355 356 358 358 361 361 362 362 366 368 368 367 367 367 366 365 364 365 366 364 363 363 364 362 362 365 366 364 364 362 361 365 365 365 367 367 346 336 334 335 336 344 363
324 324 326 337 339 350 345 347 355 358 354 355 355 354 355 361 355 356 357 357 358 358 356 355 355 362 364 363 365 368 369 369 368 367 367 367 366 366 367 366 364 363 363 361 362 363 365 365 364 364 363 363 365 364 366 367 344 334 331 333 334 336 349
324 325 327 328 330 331 346 356 353 356 353 359 358 352 353 356 355 358 357 356 361 358 358 358 357 360 365 364 366 369 369 369 368 367 368 369 368 366 366 366 364 363 363 363 363 363 364 365 364 364 364 363 364 365 366 366 344 331 328 329 330 333 341
327 329 329 335 340 336 354 358 358 358 353 342 341 351 356 354 352 357 356 357 356 359 363 362 360 360 367 364 366 369 370 370 369 368 369 370 370 368 366 366 366 366 364 362 362 362 363 363 364 364 364 363 363 365 366 365 340 328 325 326 327 330 335
322 324 327 331 353 357 357 350 350 342 357 358 347 344 341 342 351 351 350 352 353 356 361 365 363 360 368 366 365 367 370 370 370 369 369 370 370 368 366 366 367 367 366 363 361 362 363 365 364 364 364 365 364 362 362 364 335 327 324 324 325 327 344
345 344 345 346 347 350 360 360 359 360 363 358 355 348 343 342 339 343 349 350 350 358 359 362 363 360 363 367 365 366 369 370 370 370 370 370 370 369 367 366 368 369 368 364 363 362 362 362 361 363 364 365 365 363 362 362 343 324 322 322 323 327 349
345 344 344 344 351 355 359 357 356 354 352 349 348 348 351 351 353 361 376 356 355 357 356 358 360 363 363 367 367 366 369 370 371 370 370 371 370 370 370 369 369 369 369 365 361 359 360 362 361 362 362 363 364 364 363 362 348 321 320 319 320 330 352
344 344 344 346 352 350 350 353 353 356 361 361 360 365 362 360 363 365 364 371 359 356 356 356 358 362 363 366 369 369 370 370 371 372 371 371 372 372 370 368 369 369 370 365 363 361 362 363 363 363 363 362 364 349 359 363 351 323 318 317 318 329 354
342 343 344 344 351 349 353 359 359 360 355 357 360 364 366 365 367 364 367 367 357 352 356 358 360 364 365 367 370 370 370 369 372 373 373 372 372 373 372 371 369 369 368 366 364 362 361 362 363 364 363 364 364 364 363 363 365 349 317 316 316 320 352
342 343 342 343 346 356 353 353 358 357 356 361 364 361 362 362 359 364 367 367 365 360 356 361 365 368 367 367 366 370 371 371 372 373 374 374 373 371 370 369 369 368 368 366 365 364 364 362 362 362 364 364 365 364 364 364 364 358 316 314 314 316 328
343 344 346 347 351 354 350 350 354 355 354 358 359 361 365 368 363 365 368 365 363 366 363 377 369 370 370 370 366 366 371 370 373 375 374 375 375 374 371 372 372 370 369 366 367 366 366 365 363 362 362 364 365 365 365 359 344 364 322 314 312 314 316
343 344 345 346 349 351 348 349 352 353 356 357 357 357 361 365 368 364 365 365 365 368 376 377 377 372 372 372 367 367 371 373 374 374 374 374 375 374 371 372 371 371 371 369 368 368 367 367 366 364 363 365 366 366 368 369 362 335 343 313 312 311 313
342 343 343 345 345 348 347 350 354 353 356 355 356 359 361 365 367 361 360 361 372 369 373 375 376 375 373 371 372 370 370 374 373 376 375 375 375 374 373 372 371 371 372 371 369 368 368 368 368 366 364 362 363 364 365 371 371 343 329 327 311 312 312
341 343 344 344 346 350 349 349 351 351 351 353 356 358 361 363 366 366 364 367 373 373 373 373 369 378 373 371 371 373 371 374 375 375 374 374 374 373 372 372 371 370 372 372 370 369 368 369 367 367 364 363 362 362 365 368 372 371 342 322 314 312 311
341 343 344 344 347 347 347 349 351 349 349 351 354 356 358 360 360 363 363 366 367 371 371 372 372 375 375 374 375 374 375 373 373 374 373 373 373 373 374 372 370 369 372 371 370 369 367 367 365 363 364 363 363 362 364 369 372 372 368 329 320 315 313
341 343 344 344 347 348 348 349 348 348 349 351 353 355 355 358 360 361 361 364 365 366 369 369 369 372 373 374 377 377 377 373 375 373 373 375 375 375 373 373 372 370 368 368 366 366 365 364 363 362 360 360 362 363 365 364 365 365 367 359 343 336 330
342 343 345 347 348 348 348 348 348 348 349 349 351 354 355 357 359 361 363 361 363 364 364 364 364 368 366 368 371 374 372 370 368 371 368 370 367 366 366 367 367 365 367 364 365 362 363 362 360 360 359 358 360 362 363 363 364 366 348 344 347 352 346
342 343 344 346 347 346 346 346 347 348 347 348 350 352 353 355 357 357 360 361 362 365 365 365 363 367 364 363 363 361 368 365 370 366 365 366 368 369 370 365 363 365 365 365 365 365 359 360 362 362 365 366 367 369 365 365 361 329 311 318 309 321 341
342 344 345 346 346 345 344 344 346 346 346 347 351 352 352 353 354 356 357 360 364 364 365 364 364 364 366 367 364 364 365 365 361 363 363 363 364 366 371 356 341 359 372 354 326 319 322 332 353 353 356 358 361 359 353 347 328 304 299 298 300 300 302
341 343 344 344 343 344 344 343 344 344 344 347 350 351 353 353 355 357 353 359 362 362 366 367 364 364 362 362 360 360 366 364 370 370 371 374 372 375 370 364 345 305 314 326 328 312 304 303 303 306 316 341 349 333 307 307 301 299 298 298 298 298 298
341 342 343 345 346 345 344 344 344 344 344 347 349 348 351 346 348 353 349 357 357 356 356 357 365 362 360 357 357 362 363 364 365 365 363 363 365 365 363 364 365 354 314 311 316 312 305 302 300 301 304 309 317 330 336 314 302 299 299 298 298 297 297
Wind_Speed
20 21 19 16 15 17 16 16 17 19 20 22 21 22 22 20 18 18 19 21 23 22 21 19 19 17 19 17 16 15 13 12 11 11 11 10 9 9 9 9 9 9 9 9 9 9 8 8 9 9 9 10 10 8 8 8 7 7 6 5 5 5 6
19 20 19 18 17 16 15 13 12 9 12 17 20 20 20 20 17 18 19 20 23 23 22 21 20 18 18 17 16 16 15 15 13 11 11 10 9 9 9 9 9 10 9 8 8 9 8 9 9 10 10 10 11 9 9 8 9 8 7 6 6 5 5
20 18 20 19 17 15 16 15 12 13 16 20 23 22 22 20 20 20 19 20 21 21 21 22 21 20 18 18 17 18 17 15 14 14 15 14 14 14 12 10 10 9 10 9 8 8 9 9 9 8 10 10 11 10 9 8 9 9 7 7 7 7 6
19 19 19 24 23 23 23 21 22 22 22 26 25 26 22 20 18 17 18 20 21 21 21 21 21 20 19 19 19 18 18 18 17 16 16 15 14 13 11 11 9 10 9 11 10 8 9 9 10 9 9 9 10 10 10 10 9 9 8 8 7 7 7
21 18 17 19 19 17 19 18 22 23 27 27 25 22 20 18 19 18 18 20 22 24 24 23 21 20 18 19 16 15 18 19 17 15 15 14 13 12 13 13 12 12 11 10 10 9 7 9 10 10 9 8 10 9 10 9 9 9 9 9 8 8 7
19 18 14 18 20 20 20 20 19 23 23 23 24 23 22 24 22 23 22 21 21 22 20 20 20 18 18 19 17 17 17 17 16 16 15 14 13 13 14 14 13 13 13 11 10 10 10 8 10 11 11 10 10 11 11 10 10 10 10 9 9 8 8
20 17 14 17 18 19 20 21 23 22 20 18 18 19 20 21 24 23 21 22 23 23 24 23 22 20 17 17 17 17 18 18 16 17 15 15 15 14 13 13 13 12 12 10 11 11 12 11 9 10 11 12 11 11 10 10 10 10 10 10 10 9 9
18 17 16 16 19 19 19 17 15 14 11 7 11 18 23 22 21 23 23 22 23 22 22 23 22 19 18 17 17 18 18 19 18 17 16 17 16 15 14 14 13 12 12 12 12 12 12 12 11 9 11 12 11 11 11 11 11 11 10 11 11 11 9
22 21 20 20 18 20 18 16 15 14 17 17 18 20 22 21 21 22 23 23 22 23 23 22 21 19 16 16 16 17 17 17 17 17 18 20 17 19 18 15 14 13 12 13 12 12 12 11 12 11 11 12 11 12 11 11 12 11 10 11 12 12 11
17 21 19 18 19 16 14 15 13 12 14 16 20 19 21 21 20 20 21 22 22 24 24 23 21 20 18 17 18 19 17 17 16 20 20 20 17 19 19 17 15 13 14 14 13 12 12 11 12 11 11 12 12 12 12 11 12 12 12 12 12 12 12
13 18 14 15 10 15 15 16 15 13 14 15 16 17 17 18 18 20 20 21 21 21 22 21 19 20 20 20 21 20 18 20 19 19 20 20 18 19 19 18 16 14 16 15 15 13 12 12 12 12 13 13 13 13 13 13 12 12 13 12 12 13 13
11 17 16 13 13 17 17 16 15 13 12 11 13 15 13 15 18 19 19 21 20 19 20 21 19 20 20 20 21 19 21 20 20 20 21 20 19 20 19 18 17 16 15 16 16 14 13 14 12 13 14 13 13 13 13 13 12 13 14 14 13 12 13
9 9 11 11 10 12 10 12 13 14 13 12 17 16 14 17 18 18 15 17 19 18 18 17 18 17 19 20 21 18 19 20 19 17 19 18 17 16 16 17 18 18 17 16 16 16 14 14 15 13 14 15 14 14 14 14 14 13 13 14 13 13 13
12 12 10 9 11 10 9 8 8 11 14 15 16 15 14 16 17 16 14 16 17 18 18 16 17 16 16 17 17 17 20 19 17 17 17 16 15 15 15 16 15 15 14 13 15 16 15 14 15 14 14 14 15 14 14 14 14 13 13 14 14 13 13
15 13 9 8 7 8 9 9 7 9 11 12 15 15 15 14 15 14 12 14 15 17 19 16 15 16 17 17 17 16 16 15 15 15 16 16 15 15 15 15 14 13 13 13 13 13 14 14 14 14 15 14 14 14 14 14 14 13 13 14 15 14 14
15 15 13 9 8 6 5 6 6 9 8 9 11 12 15 12 11 14 15 14 16 15 15 13 15 15 16 17 17 15 15 14 13 14 15 15 15 15 15 14 13 13 13 13 14 13 13 12 13 14 15 15 15 15 14 13 12 15 21 19 15 15 13
6 11 17 13 8 9 6 6 6 6 7 7 8 10 11 10 10 12 17 16 17 14 14 14 12 15 16 16 15 14 14 13 13 13 14 15 14 14 15 15 14 13 13 13 13 14 13 13 14 15 14 15 15 16 15 14 13 19 20 21 22 16 14
8 5 8 13 10 12 10 10 8 8 9 11 12 9 9 8 9 12 15 15 16 16 16 15 12 15 15 14 12 14 15 14 14 14 14 14 14 14 14 14 14 14 14 14 14 12 12 14 15 13 13 13 16 16 15 14 16 19 21 22 23 20 16
6 3 1 4 9 9 12 13 12 12 12 13 12 11 12 10 11 10 9 10 11 12 16 17 17 13 14 15 14 14 14 13 14 15 14 14 14 13 13 14 15 15 14 15 14 12 13 14 14 14 14 13 15 17 16 15 17 20 22 22 23 23 19
1 2 3 3 3 6 4 1 11 11 11 9 12 14 13 11 12 9 10 10 9 12 11 12 13 11 14 14 14 14 14 14 14 14 14 14 14 14 14 14 15 15 14 12 12 13 14 14 15 15 15 15 14 15 15 16 16 20 22 23 24 24 21
2 2 0 2 4 5 7 6 4 5 3 2 1 1 7 13 11 10 11 10 10 10 9 10 11 10 10 14 14 13 14 14 14 14 13 13 13 13 14 15 13 13 12 12 13 14 14 15 15 15 15 16 15 12 14 16 18 19 22 22 24 24 21
5 6 5 3 11 10 8 9 7 6 7 6 5 4 4 5 11 13 13 13 12 10 9 9 10 12 9 12 14 14 14 14 14 13 12 13 13 14 14 13 13 13 12 12 12 12 11 11 13 14 14 14 14 14 15 15 18 19 21 23 23 24 14
13 16 15 13 11 11 8 8 7 7 4 3 3 5 6 7 7 9 12 12 12 9 10 10 10 12 11 10 13 14 14 14 14 13 14 13 13 14 14 13 12 11 10 11 11 11 13 13 14 12 13 14 14 16 15 14 15 18 21 22 25 18 10
13 12 11 11 9 11 11 9 8 6 6 7 6 7 6 7 7 5 2 9 11 11 11 11 12 11 10 10 12 13 13 13 13 13 13 13 14 13 12 11 11 12 11 12 13 14 15 13 12 12 13 14 15 16 14 14 14 17 20 23 24 22 12
11 10 9 8 11 9 8 5 4 5 5 5 4 5 4 5 6 6 6 3 8 10 11 12 11 10 11 10 10 10 11 12 13 13 13 13 12 12 12 12 11 10 9 12 12 13 10 10 11 12 12 16 16 17 17 16 15 17 19 22 22 19 12
9 9 9 9 10 8 5 4 2 3 5 6 8 7 7 6 4 6 5 6 6 9 11 11 9 9 9 9 9 10 10 11 11 12 12 13 12 11 11 10 11 12 13 12 12 12 12 11 12 13 13 13 14 14 15 16 15 13 19 20 21 24 17
8 7 8 8 8 6 5 5 7 5 6 6 5 6 5 4 6 5 4 5 5 6 7 8 8 8 8 9 9 10 11 10 11 12 11 11 10 11 11 11 12 12 11 13 13 12 11 13 13 12 13 13 13 15 15 15 16 14 18 20 22 23 21
8 8 6 7 6 5 6 6 6 6 7 6 6 7 8 5 4 4 5 4 5 4 4 1 8 8 9 9 9 9 11 11 9 10 10 10 10 10 10 9 10 10 12 12 11 11 11 11 10 11 10 11 12 12 12 12 15 13 15 20 20 22 26
10 9 9 8 6 8 7 5 5 6 5 6 7 7 8 9 9 4 3 4 3 3 2 3 3 7 8 8 9 8 9 10 10 9 8 9 10 11 10 9 10 10 9 10 10 10 10 10 10 10 9 8 8 8 8 9 9 17 12 17 21 23 23
9 9 9 8 8 7 8 4 4 4 5 5 6 5 6 8 8 1 1 3 5 4 3 3 1 6 7 7 7 7 6 9 10 9 9 9 9 9 10 9 9 9 9 9 9 8 9 8 8 8 9 10 8 8 7 6 7 10 15 15 21 21 23
9 8 8 8 7 8 6 6 3 5 6 6 6 5 6 7 7 8 8 6 5 6 7 5 2 4 5 6 6 6 6 5 7 9 8 8 9 8 8 9 8 8 7 7 8 8 7 7 7 7 8 8 8 7 6 5 6 6 11 18 19 22 23
10 10 9 9 8 9 8 9 6 6 5 5 5 4 3 6 7 7 5 5 5 5 5 7 4 3 4 4 4 5 5 5 6 8 8 7 6 7 6 7 7 7 6 7 7 6 7 6 5 6 7 7 8 7 6 5 3 4 3 8 14 17 23
9 9 9 7 6 7 6 6 5 5 5 6 8 8 5 4 4 4 0 3 3 3 4 3 2 3 3 4 3 3 3 4 4 5 6 6 5 5 6 6 6 6 6 6 6 6 6 6 6 6 5 6 6 6 6 7 6 6 7 4 5 6 8
9 9 7 7 5 5 6 5 5 4 4 5 5 5 6 5 4 4 4 3 1 2 1 1 1 2 2 3 4 3 4 4 6 6 6 5 6 6 7 7 7 7 6 6 6 6 6 7 7 7 7 7 6 6 6 5 7 1 7 8 6 4 2
8 9 7 5 4 4 4 5 3 4 5 5 3 3 2 3 2 1 2 1 1 2 4 2 2 3 4 3 4 5 4 5 4 4 5 6 6 5 5 6 7 6 7 4 3 3 6 6 5 3 3 2 2 3 2 2 3 6 3 4 5 8 5
7 9 8 4 3 2 1 2 3 2 3 3 3 2 1 2 2 2 4 4 2 2 2 4 4 4 4 3 3 5 7 5 7 5 5 6 7 6 5 6 8 4 3 5 6 12 11 8 5 3 3 3 5 7 4 4 2 2 6 8 9 9 8
5 7 5 4 4 1 2 1 1 1 1 4 5 6 5 1 3 5 4 3 3 2 3 3 2 3 6 6 6 8 7 6 3 5 4 3 4 2 2 5 8 13 16 13 10 13 15 16 14 15 13 7 5 9 17 12 8 9 9 9 10 8 6
6 6 7 4 2 1 2 3 3 2 0 2 4 6 5 5 5 6 4 6 6 8 9 8 1 3 4 6 6 7 6 4 4 5 6 6 5 4 4 5 6 6 6 11 13 13 17 17 15 15 15 14 12 7 4 8 8 7 8 8 8 8 7
Wind_Direction
183 175 174 181 179 182 183 184 184 192 200 195 195 197 190 190 185 180 181 179 181 180 182 182 182 183 186 187 189 190 192 193 191 194 196 198 197 198 197 192 194 198 201 197 195 202 195 187 189 196 187 188 195 198 190 187 187 195 199 185 177 188 180
187 176 170 180 180 185 179 170 174 192 207 200 195 195 193 191 186 183 182 181 182 180 180 182 183 185 185 186 187 188 191 193 193 193 195 198 199 200 200 198 196 196 202 201 194 194 195 191 191 192 191 186 194 195 196 188 188 189 193 185 181 194 185
186 183 169 175 177 181 181 182 169 194 211 208 200 198 195 191 188 184 179 180 182 182 182 182 183 183 184 185 186 190 191 192 193 192 194 198 199 201 200 201 199 198 200 204 199 189 194 195 196 192 188 187 192 194 196 192 186 190 191 181 184 190 194
187 184 184 170 171 178 185 187 186 189 204 208 198 197 195 189 187 182 180 181 181 182 184 184 183 184 184 184 187 188 190 192 194 195 198 199 199 200 199 200 201 202 198 201 206 200 194 193 192 199 189 185 189 191 194 195 190 189 190 182 186 192 197
178 183 189 158 165 168 173 180 184 195 198 199 194 193 194 185 185 182 182 183 183 184 185 184 185 186 185 184 186 188 190 192 193 195 198 199 198 196 201 202 200 204 203 198 200 205 205 185 192 191 195 188 186 188 191 193 192 186 189 183 188 194 195
179 180 186 158 168 171 177 183 187 194 197 200 196 192 194 192 189 189 186 183 187 187 185 185 187 186 185 187 185 186 188 191 192 193 195 196 195 196 199 201 201 201 203 199 195 199 203 200 191 186 192 193 191 193 192 194 195 187 189 187 190 193 196
178 176 183 166 170 173 178 186 190 188 188 195 209 197 195 195 193 191 188 188 187 186 187 187 188 186 187 189 190 187 187 189 188 191 193 197 198 198 199 200 201 199 202 196 199 195 198 204 198 187 189 196 199 198 194 193 195 190 187 191 190 195 197
167 173 183 179 175 171 177 177 180 172 169 165 207 208 199 197 195 192 192 191 189 189 190 189 188 188 185 189 189 189 188 191 188 190 192 197 197 200 198 198 199 199 196 200 199 196 197 199 200 193 187 194 194 199 196 193 194 192 189 190 192 196 196
168 174 180 183 165 169 170 166 175 163 167 179 210 209 197 198 197 196 194 192 191 190 191 190 190 189 187 190 190 190 189 188 189 190 193 197 199 201 201 200 199 197 199 201 200 197 199 195 198 195 191 193 194 196 200 195 193 195 194 191 193 196 200
173 170 178 173 171 172 154 158 166 163 176 185 203 202 193 198 199 197 196 195 193 193 190 190 190 189 186 189 192 191 189 190 190 193 194 196 198 200 200 201 201 196 201 202 204 197 197 195 193 195 195 195 195 196 199 199 195 196 197 194 194 198 200
144 155 158 167 147 126 140 154 169 177 184 195 198 194 191 196 199 199 198 197 197 194 191 191 190 190 187 188 192 192 191 192 192 193 194 195 198 200 199 201 201 198 200 202 203 201 192 196 191 193 195 197 197 198 198 199 196 195 199 200 197 198 200
142 148 156 164 158 153 160 166 175 178 186 192 190 194 190 193 200 201 200 200 199 195 193 193 191 190 187 188 192 192 193 193 195 195 196 197 199 200 201 201 201 198 195 201 202 199 195 193 195 192 194 198 199 200 199 198 199 196 199 202 201 197 201
83 121 144 146 155 149 150 161 178 178 182 179 187 195 192 192 198 203 199 199 200 198 196 192 192 190 189 189 193 191 195 194 194 194 197 197 200 199 200 201 202 201 199 197 202 200 199 193 196 195 194 196 198 201 200 199 200 199 197 201 203 200 199
102 113 122 122 118 122 144 156 162 175 184 188 189 189 198 196 198 201 197 197 199 202 198 194 192 189 187 188 192 192 194 196 192 193 196 196 196 198 200 202 203 201 197 192 199 202 203 198 193 197 197 197 200 201 200 201 201 200 199 199 202 201 200
116 118 119 123 110 135 167 176 184 176 178 179 183 191 199 200 198 198 199 198 197 203 203 194 189 190 190 187 190 192 192 194 193 193 195 195 194 197 199 201 201 200 198 193 194 200 203 205 196 194 199 200 200 202 202 203 203 201 200 200 202 204 204
138 138 136 135 146 163 150 150 125 150 156 173 186 190 199 201 195 194 198 200 199 202 206 194 190 190 192 191 191 188 188 191 193 193 194 196 196 196 198 199 199 200 201 199 195 194 198 203 203 197 198 201 201 202 205 207 208 204 198 198 200 203 206
79 144 139 137 137 164 151 139 138 134 162 181 195 195 198 198 199 196 201 203 203 199 206 203 189 190 194 196 189 183 186 188 193 191 194 198 197 196 196 198 199 200 201 202 198 195 193 197 204 207 201 202 203 203 206 208 209 199 197 198 199 200 204
63 16 128 143 149 144 151 151 160 170 179 191 203 207 198 197 197 201 207 201 203 201 202 211 196 190 192 193 183 185 186 189 190 191 194 195 198 198 197 198 200 201 200 201 201 197 192 196 202 206 204 200 205 209 209 211 206 194 194 196 197 199 202
44 106 316 62 103 126 147 164 173 180 185 190 198 203 206 204 203 203 209 206 199 200 202 207 210 191 189 190 188 186 186 187 190 193 193 194 197 198 197 198 201 203 202 203 201 196 197 199 199 203 207 206 202 210 212 216 204 195 193 195 197 199 201
202 161 101 90 39 158 101 144 156 170 183 175 184 195 201 203 203 205 204 213 201 201 205 199 209 204 185 188 189 184 184 187 191 195 196 193 194 196 199 199 203 203 202 201 197 201 203 200 201 203 207 210 209 209 213 216 205 195 193 195 196 199 201
78 338 252 135 213 81 68 80 75 90 59 170 235 218 189 189 201 195 203 209 211 200 200 199 200 209 185 186 186 182 184 186 190 194 195 195 195 197 201 202 202 201 200 201 201 201 203 203 203 205 207 211 213 214 214 219 205 192 193 195 196 199 200
321 299 254 173 89 68 59 50 26 20 24 6 320 307 279 212 193 198 204 207 211 205 198 198 197 205 192 186 186 185 183 184 188 192 193 195 196 200 203 202 199 199 198 203 206 206 206 207 210 208 209 211 215 220 223 222 205 194 192 193 195 196 198
53 44 37 49 61 70 55 51 41 33 7 352 321 276 270 260 235 211 198 201 205 201 199 199 201 203 199 186 188 186 185 185 187 189 193 195 197 201 202 199 198 198 195 203 206 204 206 209 212 212 210 211 213 219 226 227 212 195 193 193 192 190 196
37 39 34 33 50 59 52 36 14 2 333 321 306 295 293 295 292 307 258 189 189 191 198 202 206 202 198 192 188 188 186 184 184 187 191 194 199 200 198 196 197 200 194 203 206 212 213 212 215 216 216 216 215 217 223 227 216 194 195 195 192 191 191
25 22 24 32 52 38 26 16 328 301 284 269 321 323 286 270 287 301 301 258 193 187 196 204 204 198 198 192 182 183 182 183 184 188 191 194 193 193 192 194 195 196 196 205 208 216 217 214 216 216 217 220 220 217 220 227 222 200 194 194 194 194 200
15 10 11 4 45 22 5 324 295 19 333 18 7 328 332 339 307 268 277 301 256 203 196 201 196 193 192 189 177 178 182 185 184 185 190 194 194 195 193 190 195 198 198 204 210 213 217 219 217 216 218 219 221 221 217 222 225 207 196 191 195 195 199
9 1 355 353 21 355 28 359 31 7 357 21 336 326 308 293 303 297 279 270 278 247 222 186 180 181 184 185 185 175 181 183 185 186 188 191 197 199 198 197 198 199 200 205 208 210 211 218 220 219 220 219 220 226 222 221 223 211 189 195 193 195 199
1 2 354 7 328 28 30 12 8 355 348 333 340 353 343 323 248 270 291 278 271 265 262 203 170 171 174 177 190 182 175 184 182 183 188 189 188 194 199 199 199 200 199 207 209 211 210 213 222 226 225 223 225 226 226 224 214 221 191 192 193 194 201
6 360 4 341 355 36 17 6 8 358 348 1 4 346 334 333 318 241 264 280 283 293 273 299 166 161 163 170 182 188 174 175 180 182 188 190 190 194 199 198 198 200 201 203 208 209 210 210 211 221 233 237 235 234 228 226 215 216 201 191 190 196 201
355 351 339 349 340 5 349 346 30 356 9 16 4 347 335 335 313 192 240 12 5 340 299 297 204 154 156 162 171 182 185 172 177 181 185 186 191 195 199 200 199 200 199 199 204 206 210 209 206 214 222 235 241 243 245 234 228 211 203 186 193 195 201
349 347 348 344 347 3 354 334 22 18 5 1 11 7 347 342 348 60 39 24 358 12 359 327 260 137 154 157 169 175 191 184 173 176 178 186 191 194 197 200 197 203 199 199 199 206 214 207 207 212 219 226 233 244 249 243 234 232 197 190 189 197 202
346 346 347 341 350 2 337 329 4 10 0 352 347 8 7 4 9 52 36 23 6 351 11 349 335 138 144 146 157 166 176 195 178 171 174 186 188 192 187 196 198 201 196 196 195 200 206 218 219 219 221 219 229 231 241 252 280 274 227 188 198 202 206
330 327 333 337 344 344 344 341 333 359 355 17 1 353 13 7 35 37 45 56 4 6 354 360 343 38 77 110 122 147 167 198 174 156 165 173 175 176 181 189 202 198 196 190 201 201 201 213 217 232 235 237 232 226 224 226 242 255 255 123 179 198 210
333 322 322 335 5 351 337 343 348 9 2 21 7 352 2 10 7 10 20 6 297 62 323 273 288 155 164 173 150 155 174 194 192 166 167 166 189 190 189 196 200 204 193 204 208 207 211 206 215 217 225 239 235 232 226 227 233 326 17 27 358 345 189
318 313 311 314 351 343 359 335 351 17 16 12 350 350 1 11 343 11 64 95 322 232 178 168 187 217 177 182 182 187 170 190 188 181 183 169 188 201 200 196 190 189 197 207 249 251 235 226 211 225 252 259 338 322 311 291 61 56 3 44 40 33 356
321 318 310 294 290 355 16 326 322 9 24 281 286 282 153 156 141 45 39 30 91 59 62 126 188 196 177 172 197 185 156 201 173 188 206 184 176 185 193 92 101 99 114 98 78 76 67 73 83 65 30 47 58 52 42 45 65 189 78 62 49 34 31
305 320 327 304 297 169 209 143 212 118 254 295 284 238 218 187 49 104 94 65 26 51 140 190 172 110 79 70 58 38 59 23 12 148 146 45 42 62 175 188 70 51 91 103 110 106 97 88 83 65 54 53 70 81 90 85 59 42 35 38 35 40 26
281 297 318 348 21 234 183 169 149 133 119 309 349 22 8 38 29 342 65 64 39 32 22 356 116 77 91 83 64 66 71 59 53 71 78 62 52 45 56 60 104 96 35 94 97 93 91 95 91 89 85 75 72 78 105 94 75 52 45 42 39 32 23